Weather History for Rawlins, WY

Change the Weather History Date:

Monday, December 17, 2012

  Actual Average Record
Temperature  
Mean Temperature - 21 °F  
Max Temperature - 30 °F 57 °F (1962)
Min Temperature - 12 °F -28 °F (1964)
Degree Days  
Heating Degree Days 44  
Month to date heating degree days 468 735  
Since 1 July heating degree days 2138 2841  
Cooling Degree Days 0  
Month to date cooling degree days 0 0  
Year to date cooling degree days 419 186  
Moisture  
Dew Point -    
Average Humidity    
Maximum Humidity    
Minimum Humidity    
Precipitation  
Precipitation 0.07 in 0.01 in 0.25 in (1967)
Month to date precipitation 0.11 0.23  
Year to date precipitation 4.70 9.05  
Sea Level Pressure  
Sea Level Pressure 29.62 in    
Wind  
Wind Speed 25 mph (WSW)    
Max Wind Speed 37 mph    
Max Gust Speed 51 mph    
Visibility 7 miles    
Events      
T = Trace of Precipitation, MM = Missing Value Source: NWS Daily Summary

Daily Weather History Graph

Daily Weather History Graph

Search for Another Location

Airport:

Trip Planner

Search our weather history database for the weather conditions in past years. The results will help you decide how hot, cold, wet, or windy it might be!

Date:

Astronomy

Dec. 17, 2012 Rise Set
Actual Time 7:30 AM MST 4:39 PM MST
Civil Twilight 6:59 AM MST 5:11 PM MST
Nautical Twilight 6:24 AM MST 5:46 PM MST
Astronomical Twilight 5:50 AM MST 6:20 PM MST
Moon 10:37 AM MST (12/17) 10:08 PM MST (12/17)
Length of Visible Light 10h 11m
Length of Day
9h 08m
Waxing Crescent, 25% of the Moon is Illuminated
Dec 17
Waxing Crescent
Dec 19
First Quarter
Dec 28
Full
Jan 4
Last Quarter
Jan 11
New

Hourly Weather History & Observations

Time (MST) Temp. Dew Point Humidity Pressure Visibility Wind Dir Wind Speed Gust Speed Precip Events Conditions
12:53 AM - - N/A% 29.73 in 10.0 mi WSW 16.1 mph 25.3 mph N/A   Overcast
1:53 AM - - N/A% 29.71 in 10.0 mi SW 21.9 mph 31.1 mph N/A   Overcast
2:53 AM - - N/A% 29.69 in 10.0 mi SW 24.2 mph 36.8 mph N/A   Overcast
3:53 AM - - N/A% 29.65 in 10.0 mi SW 28.8 mph 39.1 mph N/A   Overcast
4:53 AM - - N/A% 29.63 in 10.0 mi WSW 29.9 mph 50.6 mph N/A   Overcast
5:53 AM - - N/A% 29.64 in 7.0 mi West 27.6 mph 40.3 mph 0.00 in   Unknown
6:53 AM - - N/A% 29.62 in 10.0 mi WSW 36.8 mph 44.9 mph 0.00 in   Clear
7:53 AM - - N/A% 29.62 in 10.0 mi WSW 27.6 mph 40.3 mph N/A   Clear
8:53 AM - - N/A% 29.63 in 10.0 mi WSW 31.1 mph 42.6 mph N/A   Clear
9:53 AM - - N/A% 29.63 in 10.0 mi WSW 24.2 mph 38.0 mph N/A   Partly Cloudy
10:53 AM - - N/A% 29.59 in 10.0 mi SW 34.5 mph 49.5 mph N/A   Clear
11:53 AM - - N/A% 29.60 in 10.0 mi WSW 35.7 mph 49.5 mph N/A   Mostly Cloudy
12:53 PM - - N/A% 29.57 in 10.0 mi SW 29.9 mph 47.2 mph N/A   Overcast
1:53 PM - - N/A% 29.55 in 10.0 mi SW 35.7 mph 42.6 mph N/A   Overcast
2:53 PM - - N/A% 29.54 in 10.0 mi SW 26.5 mph 41.4 mph 0.00 in   Overcast
5:16 PM - - N/A% 29.56 in 9.0 mi WSW 19.6 mph 27.6 mph 0.00 in   Unknown
5:25 PM - - N/A% 29.57 in 2.5 mi West 26.5 mph 32.2 mph 0.01 in   Unknown
5:31 PM - - N/A% 29.58 in 0.8 mi West 23.0 mph 31.1 mph 0.02 in   Unknown
5:48 PM - - N/A% 29.58 in 1.5 mi WSW 24.2 mph 31.1 mph 0.03 in   Unknown
5:53 PM - - N/A% 29.58 in 0.8 mi WSW 24.2 mph 32.2 mph 0.03 in   Unknown
6:19 PM - - N/A% 29.58 in 1.0 mi West 18.4 mph 29.9 mph 0.01 in   Unknown
6:26 PM - - N/A% 29.58 in 1.2 mi West 26.5 mph 33.4 mph 0.01 in   Unknown
6:35 PM - - N/A% 29.59 in 2.5 mi West 25.3 mph 34.5 mph 0.01 in   Unknown
6:44 PM - - N/A% 29.59 in 3.0 mi West 24.2 mph 31.1 mph 0.01 in   Unknown
6:53 PM - - N/A% 29.60 in 8.0 mi West 27.6 mph 38.0 mph 0.01 in   Overcast
7:05 PM - - N/A% 29.60 in 2.5 mi West 26.5 mph 35.7 mph 0.00 in   Unknown
7:14 PM - - N/A% 29.60 in 3.0 mi West 21.9 mph 33.4 mph 0.00 in   Unknown
7:53 PM - - N/A% 29.64 in 10.0 mi West 21.9 mph 29.9 mph 0.00 in   Mostly Cloudy
8:53 PM - - N/A% 29.64 in 10.0 mi West 19.6 mph 28.8 mph N/A   Scattered Clouds
9:53 PM - - N/A% 29.65 in 10.0 mi West 19.6 mph - N/A   Clear
10:53 PM - - N/A% 29.67 in 10.0 mi West 20.7 mph - N/A   Scattered Clouds
11:53 PM - - N/A% 29.69 in 10.0 mi WSW 12.7 mph - N/A   Overcast